Regional Weather Roundup
Issued by NWS

Current Version | Previous Version | Text Only | Print | Product List | Glossary On
Versions: 1 2 3 4 5 6 7 8 9 10 11 12 13 14 15 16 17 18 19 20 21 22 23 24 25 26 27 28 29 30 31 32 33 34 35 36 37 38 39 40 41 42 43 44 45 46 47 48 49 50
000
ASUS44 KBMX 281010
RWRAL

ALABAMA REGIONAL WEATHER ROUNDUP
NATIONAL WEATHER SERVICE BIRMINGHAM AL
500 AM CDT TUE JUL 28 2015

NOTE: "FAIR" INDICATES FEW OR NO CLOUDS BELOW 12,000 FEET
WITH NO SIGNIFICANT WEATHER AND/OR OBSTRUCTIONS TO VISIBILITY.

THE REMARK "TC" DENOTES TEMPERATURE IN DEGREES CELSIUS.

ALZ001>011-014-016>018-020-281100-
NORTH ALABAMA

CITY           SKY/WX    TMP DP  RH WIND       PRES   REMARKS
MUSCLE SHOALS  CLEAR     76  73  91 CALM      29.99R
HUNTSVILLE     CLEAR     77  72  84 CALM      29.98R
DECATUR        CLEAR     73  72  96 CALM      29.98R FOG
HALEYVILLE     FAIR      73  73 100 CALM      30.03R FOG
GADSDEN        CLEAR     73  66  78 CALM      29.97R
$$

ALZ012-013-022-023-030>036-040>044-281100-
WEST CENTRAL ALABAMA

CITY           SKY/WX    TMP DP  RH WIND       PRES   REMARKS
TUSCALOOSA     CLEAR     76  74  93 CALM      29.97R FOG
$$

ALZ015-024>027-033>036-040>044-281100-
CENTRAL ALABAMA

CITY           SKY/WX    TMP DP  RH WIND       PRES   REMARKS
BIRMINGHAM     CLEAR     74  72  93 CALM      30.00R
MONTGOMERY     CLEAR     77  74  90 CALM      29.95S FOG
SHELBY CO ARPT CLEAR     73  72  96 CALM      29.98R
MAXWELL AFB    CLEAR     76  75  96 NW2       29.94S
GREENVILLE     FAIR      74  71  91 CALM      29.96R
$$

ALZ019-021-028-029-037-038-045>048-281100-
EAST CENTRAL ALABAMA

CITY           SKY/WX    TMP DP  RH WIND       PRES   REMARKS
ANNISTON       PTCLDY    73  72  96 CALM      29.98R FOG
ALEXANDER CITY CLEAR     72  68  89 CALM      29.98R
AUBURN         CLEAR     77  72  83 N6        29.98R
$$

ALZ051>064-281100-
SOUTHWEST ALABAMA

CITY           SKY/WX    TMP DP  RH WIND       PRES   REMARKS
MOBILE         MOCLDY    78  73  84 NW3       29.97R
BROOKLEY FIELD PTCLDY    80  72  76 W6        29.97R
EVERGREEN      PTCLDY    74  72  93 CALM      29.96S FOG
$$

ALZ049-050-065>069-281100-
SOUTHEAST ALABAMA

CITY           SKY/WX    TMP DP  RH WIND       PRES   REMARKS
DOTHAN         CLEAR     76  73  91 CALM      29.97R
OZARK          CLEAR     76  73  92 W2        29.94R
TROY           CLEAR     74  73  97 CALM      29.96S
EUFAULA        FAIR      74  73  97 CALM      29.93S FOG
$$


USA.gov is the U.S. government's official web portal to all federal, state and local government web resources and services.